Change the Weather History Date:

Monday, April 1, 2013

  Actual Average Record
Temperature  
Mean Temperature 68 °F -  
Max Temperature 78 °F 74 °F 90 °F (1954)
Min Temperature 60 °F 52 °F 34 °F (1971)
Cooling Degree Days 4    
Growing Degree Days 18 (Base 50)    
Moisture  
Dew Point 56 °F    
Average Humidity 72    
Maximum Humidity 94    
Minimum Humidity 45    
Precipitation  
Precipitation 0.09 in - - ()
Sea Level Pressure  
Sea Level Pressure 29.93 in    
Wind  
Wind Speed 7 mph (West)    
Max Wind Speed 14 mph    
Max Gust Speed 21 mph    
Visibility 10 miles    
Events Rain , Thunderstorm    
Averages and records for this station are not official NWS values.
T = Trace of Precipitation, MM = Missing Value Source: NWS Daily Summary

Daily Weather History Graph

Daily Weather History Graph

Search for Another Location

Airport or City:

Trip Planner

Search our weather history database for the weather conditions in past years. The results will help you decide how hot, cold, wet, or windy it might be!

Date:

Astronomy

Apr. 01, 2013 Rise Set
Actual Time 7:10 AM EDT 7:43 PM EDT
Civil Twilight 6:46 AM EDT 8:07 PM EDT
Nautical Twilight 6:17 AM EDT 8:36 PM EDT
Astronomical Twilight 5:47 AM EDT 9:06 PM EDT
Moon 12:35 AM EDT (4/1) 11:10 AM EDT (4/1)
Length of Visible Light 13h 21m
Length of Day
12h 32m
Waning Gibbous, 67% of the Moon is Illuminated
Apr 1
Waning Gibbous
Apr 3
Last Quarter
Apr 10
New
Apr 18
First Quarter
Apr 25
Full

Hourly Weather History & Observations

Time (EDT) Temp. Dew Point Humidity Pressure Visibility Wind Dir Wind Speed Gust Speed Precip Events Conditions
12:56 AM 62.1 °F 55.9 °F 80% 29.94 in 10.0 mi SSW 5.8 mph - N/A   Clear
1:56 AM 62.1 °F 55.0 °F 78% 29.93 in 10.0 mi SW 6.9 mph - N/A   Scattered Clouds
2:56 AM 60.1 °F 53.1 °F 78% 29.92 in 10.0 mi WSW 5.8 mph - N/A   Clear
3:56 AM 62.1 °F 54.0 °F 75% 29.90 in 10.0 mi SW 4.6 mph - N/A   Clear
4:56 AM 61.0 °F 55.0 °F 81% 29.90 in 10.0 mi WSW 5.8 mph - N/A   Mostly Cloudy
5:40 AM 62.6 °F 55.4 °F 77% 29.91 in 10.0 mi West 6.9 mph - N/A Thunderstorm Thunderstorm
5:56 AM 62.1 °F 55.9 °F 80% 29.91 in 10.0 mi West 6.9 mph - N/A Thunderstorm Thunderstorm
6:15 AM 62.6 °F 55.4 °F 77% 29.91 in 10.0 mi West 8.1 mph - N/A   Overcast
6:56 AM 61.0 °F 57.0 °F 87% 29.91 in 10.0 mi West 6.9 mph - 0.02 in   Mostly Cloudy
7:56 AM 61.0 °F 57.0 °F 87% 29.94 in 10.0 mi WSW 6.9 mph - N/A   Mostly Cloudy
8:44 AM 62.6 °F 57.2 °F 82% 29.95 in 10.0 mi West 6.9 mph - N/A Thunderstorm Thunderstorm
8:56 AM 62.1 °F 57.0 °F 84% 29.96 in 2.5 mi West 9.2 mph - 0.04 in Rain , Thunderstorm Thunderstorms and Rain
9:07 AM 60.8 °F 57.2 °F 88% 29.96 in 3.0 mi West 8.1 mph - 0.02 in Rain Rain
9:53 AM 62.6 °F 60.8 °F 94% 29.96 in 10.0 mi WSW 6.9 mph - 0.03 in   Scattered Clouds
9:56 AM 64.0 °F 61.0 °F 90% 29.96 in 10.0 mi WSW 10.4 mph - 0.03 in   Scattered Clouds
10:56 AM 68.0 °F 61.0 °F 78% 29.94 in 10.0 mi West 10.4 mph - N/A   Mostly Cloudy
11:24 AM 69.8 °F 60.8 °F 73% 29.94 in 10.0 mi West 10.4 mph - N/A   Scattered Clouds
11:38 AM 69.8 °F 60.8 °F 73% 29.94 in 10.0 mi West 9.2 mph - N/A   Mostly Cloudy
11:56 AM 70.0 °F 59.0 °F 68% 29.95 in 10.0 mi NW 13.8 mph 20.7 mph N/A   Mostly Cloudy
12:32 PM 71.6 °F 57.2 °F 60% 29.93 in 10.0 mi West 12.7 mph - N/A   Mostly Cloudy
12:56 PM 73.0 °F 59.0 °F 61% 29.93 in 10.0 mi NW 10.4 mph - N/A   Mostly Cloudy
1:56 PM 71.1 °F 57.9 °F 63% 29.92 in 10.0 mi NW 11.5 mph 19.6 mph 0.00 in Rain Light Rain
2:56 PM 75.0 °F 55.9 °F 51% 29.90 in 10.0 mi WNW 13.8 mph 20.7 mph 0.00 in   Partly Cloudy
3:56 PM 77.0 °F 55.9 °F 48% 29.89 in 10.0 mi NW 11.5 mph - N/A   Scattered Clouds
4:56 PM 75.9 °F 55.0 °F 48% 29.88 in 10.0 mi West 10.4 mph 17.3 mph N/A   Clear
5:56 PM 77.0 °F 55.0 °F 47% 29.88 in 10.0 mi WNW 13.8 mph 18.4 mph N/A   Clear
6:56 PM 75.9 °F 53.1 °F 45% 29.89 in 10.0 mi WNW 8.1 mph - N/A   Clear
7:56 PM 72.0 °F 53.1 °F 51% 29.90 in 10.0 mi Calm Calm - N/A   Clear
8:56 PM 64.0 °F 55.9 °F 75% 29.91 in 10.0 mi Calm Calm - N/A   Clear
9:56 PM 63.0 °F 55.0 °F 75% 29.93 in 10.0 mi Calm Calm - N/A   Clear
10:56 PM 60.1 °F 54.0 °F 80% 29.96 in 7.0 mi Calm Calm - N/A   Clear
11:56 PM 63.0 °F 48.9 °F 60% 29.97 in 10.0 mi NW 5.8 mph - N/A   Clear